Content
SEND FEEDBACK

Daily
Averages
Monthly
Summary
United States of America

PYGA BEACH, GUAM


Home > North America > United States > Guam
Elevation: 6 meters     Latitude: 13 17N     Longitude: 144 39E

WEATHER
 
SELECT A DAY
Number of Records: 351,467;   Date Range: 1/1/95 - 10/18/14
 
SHARE

PRINT THIS DATA

[ ← Previous Day ]
WEATHER ALMANAC - 6 MARCH, 2013
[ Next Day → ]
[ °F ]   °C
Weather ElementAverageHighLow
Temperature25.3 °C28.7 °C (11:55 am)23.7 °C (6:55 pm)
Dewpoint23.2 °C25 °C (12:22 pm)20.9 °C (5:55 am)
Humidity88.2 %100 % (1:36 pm)70 % (8:55 am)
Barometer1011.2 hPa1013.2 hPa (11:41 pm)1009.5 hPa (3:37 pm)
Wind Speed29.6 km/h44.4 km/h (12:34 pm)
Wind Gust57.5 km/h (6:40 pm)
Weather ElementAverage
Visibility11.6 km
Wind DirectionENE (64.3 °)

Weather ElementTotal
Precipitation---
Cooling Degree Days7.9 (Base 18.3)
Growing Degree Days16.2 (Base 10)
Averaged from 148 records on 6 March, 2013
WEATHER CONDITIONS BREAKOUT
WIND DIRECTION BREAKOUT
WEATHER BY HOUR - 6 MARCH, 2013
[ °F ]   °C
Local TimeTemperatureDewpointHumidityBarometerVisibilityWind DirectionWind SpeedGust SpeedPrecipitationEventsConditions
1:00 AM25 °C22 °C83 %1012.5 hPa16.1 kmNE (50°)22.2 km/hScattered Clouds
1:03 AM26 °C22 °C78 %1012.5 hPa16.1 kmNE (50°)20.4 km/hMostly Cloudy
1:15 AM25 °C22 °C83 %1012.2 hPa16.1 kmENE (60°)24.1 km/hMostly Cloudy
1:55 AM25.1 °C22.3 °C84 %1012.2 hPa16.1 kmENE (60°)24.1 km/hPartly Cloudy
2:32 AM25 °C22 °C83 %1011.5 hPa16.1 kmENE (60°)20.4 km/hMostly Cloudy
2:35 AM25 °C22 °C83 %1011.5 hPa16.1 kmENE (60°)22.2 km/hMostly Cloudy
2:48 AM25 °C22 °C83 %1011.2 hPa16.1 kmNE (50°)24.1 km/hMostly Cloudy
2:55 AM25.2 °C21.3 °C79 %1011.2 hPa16.1 kmENE (60°)20.4 km/hMostly Cloudy
2:57 AM25 °C21 °C78 %1011.2 hPa16.1 kmENE (60°)22.2 km/hMostly Cloudy
3:55 AM24.7 °C21.3 °C81 %1010.8 hPa16.1 kmENE (60°)25.9 km/hPartly Cloudy
4:55 AM24.7 °C21.1 °C80 %1010.8 hPa16.1 kmNE (50°)22.2 km/hClear
5:55 AM24.8 °C20.9 °C79 %1011.2 hPa16.1 kmENE (60°)24.1 km/hPartly Cloudy
6:55 AM24.8 °C21.4 °C81 %1011.9 hPa16.1 kmENE (60°)22.2 km/hPartly Cloudy
7:27 AM26 °C22 °C78 %1012.2 hPa16.1 kmENE (60°)24.1 km/hMostly Cloudy
7:40 AM26 °C22 °C78 %1012.2 hPa16.1 kmENE (60°)27.8 km/hScattered Clouds
7:55 AM26.1 °C21.4 °C75 %1012.5 hPa16.1 kmENE (60°)31.5 km/h38.9 km/hPartly Cloudy
8:55 AM27.5 °C21.7 °C70 %1012.9 hPa16.1 kmENE (60°)22.2 km/hClear
9:38 AM28 °C22 °C70 %1012.9 hPa16.1 kmNE (50°)25.9 km/hMostly Cloudy
9:55 AM27.9 °C22.3 °C71 %1012.9 hPa16.1 kmENE (60°)27.8 km/h35.2 km/hOvercast
10:55 AM28.2 °C23.1 °C74 %1012.5 hPa16.1 kmNE (50°)29.6 km/h40.7 km/hOvercast
11:23 AM28 °C23 °C74 %1012.2 hPa16.1 kmENE (60°)35.2 km/hOvercast
11:55 AM28.7 °C23.6 °C74 %1011.5 hPa16.1 kmENE (60°)27.8 km/hScattered Clouds
11:59 AM28 °C24 °C79 %1011.9 hPa9.7 kmENE (60°)37 km/h51.8 km/hRainLight Rain
12:04 PM26 °C24 °C89 %1011.5 hPa8 kmENE (60°)31.5 km/h51.8 km/hRainLight Rain
12:19 PM26 °C24 °C89 %1011.5 hPa14.5 kmENE (70°)22.2 km/hMostly Cloudy
12:22 PM27 °C25 °C89 %1011.2 hPa16.1 kmENE (70°)27.8 km/hMostly Cloudy
12:24 PM27 °C25 °C89 %1011.2 hPa16.1 kmENE (70°)27.8 km/hMostly Cloudy
12:28 PM27 °C25 °C89 %1011.2 hPa16.1 kmENE (70°)25.9 km/hMostly Cloudy
12:32 PM27 °C24 °C84 %1011.2 hPa4.8 kmENE (70°)40.7 km/h51.8 km/hRainRain
12:33 PM26 °C24 °C89 %1011.2 hPa4 kmENE (70°)38.9 km/h53.8 km/hRainRain
12:34 PM26 °C24 °C89 %1011.2 hPa2.9 kmENE (60°)44.4 km/h53.8 km/hRainRain
12:38 PM25 °C23 °C89 %1011.2 hPa1.9 kmENE (60°)35.2 km/h53.8 km/hRainLight Rain
12:39 PM25 °C23 °C89 %1011.2 hPa1.9 kmNE (50°)33.3 km/h53.8 km/hRainLight Rain
12:42 PM25 °C23 °C89 %1011.2 hPa2.4 kmNE (50°)25.9 km/h53.8 km/hRainLight Rain
12:44 PM25 °C24 °C94 %1010.8 hPa4 kmNE (40°)24.1 km/hRainRain
12:45 PM25 °C24 °C94 %1010.8 hPa4.8 kmNE (40°)24.1 km/hRainLight Rain
12:51 PM26 °C24 °C89 %1010.8 hPa14.5 kmNE (50°)27.8 km/hMostly Cloudy
12:54 PM26 °C24 °C89 %1010.8 hPa14.5 kmNE (50°)25.9 km/hRainLight Rain
12:55 PM25.9 °C24.3 °C91 %1010.8 hPa12.9 kmNE (40°)27.8 km/h0 mmLight Drizzle
1:00 PM26 °C24 °C89 %1010.5 hPa12.9 kmNE (50°)29.6 km/hRainLight Rain
1:06 PM26 °C24 °C89 %1010.5 hPa16.1 kmNE (50°)33.3 km/hOvercast
1:16 PM26 °C24 °C89 %1010.5 hPa14.5 kmENE (60°)35.2 km/h46.3 km/hRainLight Rain
1:17 PM26 °C24 °C89 %1010.5 hPa12.9 kmENE (60°)38.9 km/h48.1 km/hRainLight Rain
1:22 PM26 °C24 °C89 %1010.5 hPa4 kmEast (80°)37 km/h51.8 km/hRainHeavy Rain
1:23 PM26 °C24 °C89 %1010.2 hPa3.2 kmEast (80°)35.2 km/h51.8 km/hRainHeavy Rain
1:24 PM25 °C24 °C94 %1010.5 hPa2.9 kmEast (80°)35.2 km/h51.8 km/hRainRain
1:26 PM25 °C24 °C94 %1010.5 hPa1.9 kmEast (80°)35.2 km/h51.8 km/hRainRain
1:28 PM25 °C24 °C94 %1010.5 hPa1.6 kmEast (90°)33.3 km/h51.8 km/hRainRain
1:33 PM25 °C24 °C94 %1010.5 hPa1.9 kmEast (80°)31.5 km/h48.1 km/hRainRain
1:36 PM24 °C24 °C100 %1010.5 hPa2.4 kmEast (80°)35.2 km/h44.4 km/hRainLight Rain
1:37 PM24 °C24 °C100 %1010.5 hPa2.9 kmEast (80°)37 km/h46.3 km/hRainLight Rain
1:38 PM24 °C24 °C100 %1010.5 hPa3.2 kmENE (70°)40.7 km/h48.1 km/hRainLight Rain
1:41 PM24 °C23 °C94 %1010.5 hPa3.2 kmEast (80°)42.6 km/h55.5 km/hOvercast
1:42 PM24 °C23 °C94 %1010.5 hPa3.2 kmEast (80°)44.4 km/h55.5 km/hOvercast
1:44 PM24 °C23 °C94 %1010.5 hPa2.9 kmEast (80°)42.6 km/h55.5 km/hOvercast
1:50 PM24 °C23 °C94 %1010.2 hPa2.9 kmENE (60°)31.5 km/h55.5 km/hLight Drizzle
1:52 PM24 °C23 °C94 %1010.2 hPa3.2 kmENE (60°)27.8 km/h55.5 km/hLight Drizzle
1:53 PM24 °C23 °C94 %1010.2 hPa4 kmENE (60°)27.8 km/h55.5 km/hLight Drizzle
1:54 PM24 °C23 °C94 %1010.2 hPa4.8 kmENE (60°)29.6 km/hLight Drizzle
1:55 PM24.3 °C23.5 °C95 %1010.2 hPa4.8 kmENE (60°)27.8 km/h0 mmLight Drizzle
1:58 PM25 °C24 °C94 %1010.2 hPa9.7 kmENE (60°)25.9 km/hOvercast
2:05 PM26 °C24 °C89 %1010.2 hPa16.1 kmENE (60°)25.9 km/hOvercast
2:35 PM27 °C24 °C84 %1009.8 hPa16.1 kmENE (60°)31.5 km/hMostly Cloudy
2:54 PM26 °C24 °C89 %1009.8 hPa12.9 kmENE (60°)27.8 km/h38.9 km/hRainLight Rain
2:55 PM26.4 °C23.6 °C84 %1009.8 hPa11.3 kmENE (60°)27.8 km/h38.9 km/h0 mmRainLight Rain
3:00 PM26 °C24 °C89 %1009.8 hPa8 kmENE (60°)37 km/h44.4 km/hRainLight Rain
3:05 PM26 °C23 °C83 %1009.8 hPa9.7 kmENE (60°)31.5 km/h44.4 km/hRainLight Rain
3:08 PM26 °C24 °C89 %1009.8 hPa14.5 kmNE (50°)33.3 km/h44.4 km/hOvercast
3:24 PM26 °C24 °C89 %1009.8 hPa16.1 kmENE (60°)27.8 km/hMostly Cloudy
3:37 PM26 °C24 °C89 %1009.5 hPa16.1 kmNE (50°)31.5 km/hMostly Cloudy
3:43 PM26 °C23 °C83 %1009.8 hPa11.3 kmENE (60°)33.3 km/hRainLight Rain
3:47 PM26 °C24 °C89 %1009.8 hPa11.3 kmENE (60°)25.9 km/hRainLight Rain
3:49 PM26 °C24 °C89 %1009.8 hPa11.3 kmENE (60°)27.8 km/hRainLight Rain
3:52 PM26 °C24 °C89 %1009.5 hPa14.5 kmENE (60°)31.5 km/hMostly Cloudy
3:53 PM26 °C24 °C89 %1009.5 hPa14.5 kmENE (60°)31.5 km/hMostly Cloudy
3:55 PM25.7 °C23.6 °C88 %1009.8 hPa16.1 kmNE (50°)27.8 km/h0 mmMostly Cloudy
4:02 PM26 °C23 °C83 %1009.8 hPa16.1 kmNE (50°)29.6 km/hOvercast
4:34 PM27 °C23 °C79 %1009.5 hPa16.1 kmNE (50°)33.3 km/hOvercast
4:41 PM27 °C23 °C79 %1009.5 hPa16.1 kmNE (50°)31.5 km/hOvercast
4:55 PM25.9 °C23.4 °C86 %1010.2 hPa11.3 kmENE (60°)29.6 km/h46.3 km/hOvercast
4:58 PM26 °C24 °C89 %1010.2 hPa9.7 kmENE (60°)31.5 km/h46.3 km/hRainLight Rain
5:04 PM26 °C23 °C83 %1010.2 hPa12.9 kmEast (80°)31.5 km/hDrizzle
5:05 PM26 °C23 °C83 %1010.2 hPa12.9 kmEast (80°)29.6 km/hDrizzle
5:11 PM25 °C24 °C94 %1010.2 hPa4 kmEast (90°)29.6 km/h40.7 km/hRainLight Rain
5:12 PM25 °C24 °C94 %1010.2 hPa3.2 kmEast (100°)33.3 km/h40.7 km/hRainLight Rain
5:14 PM25 °C24 °C94 %1010.2 hPa2.4 kmEast (80°)37 km/hRainLight Rain
5:16 PM25 °C24 °C94 %1010.5 hPa1.9 kmEast (80°)38.9 km/h48.1 km/hRainLight Rain
5:17 PM25 °C24 °C94 %1010.5 hPa1.9 kmEast (80°)37 km/h48.1 km/hRainLight Rain
5:24 PM24 °C23 °C94 %1010.5 hPa2.4 kmENE (70°)33.3 km/h53.8 km/hRainLight Rain
5:27 PM24 °C23 °C94 %1010.8 hPa3.2 kmENE (70°)31.5 km/h53.8 km/hRainLight Rain
5:28 PM24 °C23 °C94 %1010.8 hPa4 kmENE (60°)29.6 km/h53.8 km/hRainLight Rain
5:29 PM24 °C23 °C94 %1010.8 hPa4 kmENE (60°)29.6 km/h40.7 km/hRainLight Rain
5:30 PM24 °C23 °C94 %1010.8 hPa4.8 kmENE (70°)27.8 km/h40.7 km/hLight Drizzle
5:33 PM24 °C23 °C94 %1010.8 hPa9.7 kmENE (70°)31.5 km/h40.7 km/hLight Drizzle
5:35 PM24 °C23 °C94 %1010.8 hPa11.3 kmENE (70°)29.6 km/hOvercast
5:36 PM24 °C23 °C94 %1010.8 hPa11.3 kmENE (70°)25.9 km/hOvercast
5:51 PM24 °C23 °C94 %1010.8 hPa16.1 kmNE (50°)22.2 km/h37 km/hOvercast
5:55 PM24.4 °C22.5 °C89 %1010.8 hPa16.1 kmENE (60°)24.1 km/h0 mmOvercast
6:31 PM25 °C23 °C89 %1011.2 hPa16.1 kmENE (70°)25.9 km/hOvercast
6:35 PM25 °C23 °C89 %1011.2 hPa16.1 kmENE (70°)37 km/h50.1 km/hMostly Cloudy
6:36 PM25 °C23 °C89 %1011.2 hPa16.1 kmEast (80°)40.7 km/h50.1 km/hOvercast
6:40 PM25 °C23 °C89 %1011.2 hPa6.4 kmEast (80°)42.6 km/h57.5 km/hRainLight Rain
6:43 PM24 °C23 °C94 %1011.2 hPa4 kmEast (80°)42.6 km/h57.5 km/hRainLight Rain
6:46 PM24 °C23 °C94 %1011.5 hPa3.2 kmEast (80°)38.9 km/h57.5 km/hRainLight Rain
6:48 PM24 °C23 °C94 %1011.5 hPa3.2 kmEast (90°)37 km/h57.5 km/hRainLight Rain
6:49 PM24 °C23 °C94 %1011.5 hPa4 kmEast (80°)35.2 km/h57.5 km/hLight Drizzle
6:50 PM24 °C23 °C94 %1011.5 hPa4.8 kmEast (80°)31.5 km/h51.8 km/hLight Drizzle
6:55 PM23.7 °C22.3 °C92 %1011.2 hPa9.7 kmEast (90°)24.1 km/h48.1 km/h0 mmLight Drizzle
6:58 PM24 °C22 °C89 %1011.2 hPa14.5 kmEast (80°)20.4 km/hOvercast
7:00 PM24 °C22 °C89 %1011.2 hPa16.1 kmEast (80°)20.4 km/hMostly Cloudy
7:30 PM25 °C24 °C94 %1011.5 hPa16.1 kmENE (60°)25.9 km/hOvercast
7:33 PM25 °C24 °C94 %1011.5 hPa16.1 kmENE (60°)25.9 km/hOvercast
7:41 PM25 °C24 °C94 %1011.5 hPa16.1 kmNE (50°)31.5 km/hOvercast
7:43 PM25 °C23 °C89 %1011.5 hPa16.1 kmNE (50°)33.3 km/h42.6 km/hOvercast
7:51 PM25 °C23 °C89 %1011.5 hPa16.1 kmENE (60°)31.5 km/h42.6 km/hOvercast
7:52 PM25 °C23 °C89 %1011.9 hPa16.1 kmENE (60°)29.6 km/h42.6 km/hOvercast
7:55 PM25.4 °C23.5 °C89 %1011.9 hPa16.1 kmENE (60°)31.5 km/h0 mmOvercast
8:47 PM25 °C23 °C89 %1012.2 hPa16.1 kmENE (60°)33.3 km/h40.7 km/hMostly Cloudy
8:49 PM25 °C23 °C89 %1012.2 hPa16.1 kmENE (60°)31.5 km/h40.7 km/hOvercast
8:52 PM25 °C23 °C89 %1012.2 hPa16.1 kmEast (80°)25.9 km/h40.7 km/hMostly Cloudy
8:55 PM25.4 °C23.1 °C87 %1012.2 hPa16.1 kmENE (70°)22.2 km/h40.7 km/hMostly Cloudy
9:01 PM25 °C23 °C89 %1012.2 hPa16.1 kmENE (70°)25.9 km/h33.3 km/hOvercast
9:08 PM25 °C23 °C89 %1012.5 hPa16.1 kmENE (60°)27.8 km/h37 km/hOvercast
9:09 PM25 °C23 °C89 %1012.5 hPa16.1 kmENE (60°)27.8 km/h37 km/hOvercast
9:11 PM25 °C23 °C89 %1012.5 hPa16.1 kmENE (60°)29.6 km/h37 km/hMostly Cloudy
9:17 PM25 °C23 °C89 %1012.5 hPa16.1 kmENE (60°)25.9 km/hMostly Cloudy
9:30 PM26 °C23 °C83 %1012.5 hPa16.1 kmENE (60°)29.6 km/hMostly Cloudy
9:31 PM26 °C23 °C83 %1012.5 hPa16.1 kmENE (60°)25.9 km/hMostly Cloudy
9:32 PM26 °C23 °C83 %1012.5 hPa16.1 kmENE (60°)25.9 km/hMostly Cloudy
9:37 PM26 °C24 °C89 %1012.5 hPa16.1 kmENE (60°)24.1 km/hMostly Cloudy
9:49 PM26 °C23 °C83 %1012.9 hPa16.1 kmENE (60°)27.8 km/h38.9 km/hMostly Cloudy
9:54 PM26 °C23 °C83 %1012.9 hPa16.1 kmENE (60°)25.9 km/hMostly Cloudy
9:55 PM25.6 °C23.3 °C87 %1012.9 hPa16.1 kmENE (60°)25.9 km/hMostly Cloudy
10:08 PM25 °C23 °C89 %1012.9 hPa8 kmENE (70°)33.3 km/h46.3 km/hRainLight Rain
10:18 PM25 °C23 °C89 %1012.9 hPa9.7 kmENE (60°)25.9 km/hRainLight Rain
10:20 PM25 °C23 °C89 %1012.9 hPa14.5 kmENE (60°)27.8 km/hMostly Cloudy
10:25 PM25 °C23 °C89 %1012.9 hPa14.5 kmENE (60°)22.2 km/hMostly Cloudy
10:26 PM25 °C23 °C89 %1012.9 hPa12.9 kmENE (70°)25.9 km/h38.9 km/hRainLight Rain
10:37 PM25 °C23 °C89 %1012.9 hPa14.5 kmENE (70°)24.1 km/hMostly Cloudy
10:55 PM25.2 °C23.1 °C88 %1012.9 hPa16.1 kmENE (70°)25.9 km/h0 mmMostly Cloudy
10:57 PM25 °C23 °C89 %1012.9 hPa16.1 kmENE (70°)27.8 km/hMostly Cloudy
11:00 PM25 °C23 °C89 %1012.9 hPa16.1 kmENE (70°)29.6 km/h38.9 km/hMostly Cloudy
11:23 PM25 °C24 °C94 %1012.9 hPa16.1 kmENE (70°)22.2 km/hMostly Cloudy
11:34 PM25 °C24 °C94 %1012.9 hPa14.5 kmENE (70°)31.5 km/h38.9 km/hRainLight Rain
11:41 PM25 °C23 °C89 %1013.2 hPa14.5 kmENE (60°)24.1 km/h38.9 km/hRainLight Rain
11:43 PM25 °C23 °C89 %1012.9 hPa16.1 kmENE (60°)24.1 km/hMostly Cloudy
11:45 PM25 °C23 °C89 %1012.9 hPa16.1 kmENE (70°)24.1 km/hMostly Cloudy
11:55 PM24.9 °C23.7 °C93 %1012.9 hPa16.1 kmENE (70°)16.7 km/h0 mmMostly Cloudy
Hourly data recorded from PGUA, located 0 kilometers away from Pyga Beach, Guam







STORIES FROM OUR PARTNERS